Location: ??????????
(31.2156°N, 29.9553°E)
Time: 07:13:00
(UTC+00:00)

SL-08 RB Rocket - Pass Details

Date: 03 March 2021
Orbit: 647 x 683 km, 97.8° (Epoch: 15 April)

Event Time Altitude Azimuth Distance (km) Brightness Sun altitude
Rises 17:08:03 0° 159° (SSE) 2,952 6.8 -15.4°
Reaches altitude 10° 17:10:16 10° 156° (SSE) 2,049 6.0 -15.8°
Maximum altitude 17:14:40 62° 76° (ENE) 739 3.6 -16.8°
Drops below altitude 10° 17:19:09 10° 356° (N) 2,080 6.3 -17.7°
Sets 17:21:24 0° 353° (N) 3,002 7.2 -18.2°
